Charlotte, NC

6:25 AM EDT on September 29, 2016 (GMT -0400)
Concord Regional

Weather History for KJQF - April, 2013

Change the Weather History Date:

Sunday, April 28, 2013

  Actual Average (KCLT) Record (KCLT)
Temperature  
Mean Temperature 55 °F 63 °F  
Max Temperature 57 °F 75 °F 90 °F (1943)
Min Temperature 53 °F 50 °F 36 °F (1967)
Degree Days  
Heating Degree Days 10 4  
Month to date heating degree days 191  
Since 1 July heating degree days 3323  
Cooling Degree Days 0 2  
Month to date cooling degree days 32  
Year to date cooling degree days 37  
Growing Degree Days 5 (Base 50)    
Moisture  
Dew Point 54 °F    
Average Humidity 94    
Maximum Humidity 100    
Minimum Humidity 88    
Precipitation  
Precipitation 0.20 in 0.10 in 2.23 in (2013)
Month to date precipitation 2.86  
Year to date precipitation 13.60  
Snow  
Snow 0.00 in 0.00 in T in (1928)
Month to date snowfall 0.1  
Since 1 July snowfall 4.4  
Snow Depth -    
Sea Level Pressure  
Sea Level Pressure 30.21 in    
Wind  
Wind Speed 1 mph (NE)    
Max Wind Speed 12 mph    
Max Gust Speed -    
Visibility 4 miles    
Events Rain    
T = Trace of Precipitation, MM = Missing Value Source: NWS Daily Summary

Daily Weather History Graph

Daily Weather History Graph

Search for Another Location

Airport or City:

Trip Planner

Search our weather history database for the weather conditions in past years. The results will help you decide how hot, cold, wet, or windy it might be!

Date:

Astronomy

Apr. 28, 2013 Rise Set
Actual Time 6:34 AM EDT 8:06 PM EDT
Civil Twilight 6:07 AM EDT 8:33 PM EDT
Nautical Twilight 5:34 AM EDT 9:06 PM EDT
Astronomical Twilight 5:00 AM EDT 9:40 PM EDT
Moon 11:31 PM EDT (4/28) 8:53 AM EDT (4/28)
Length of Visible Light 14h 26m
Length of Day
13h 32m
Waning Gibbous, 89% of the Moon is Illuminated
Apr 28
Waning Gibbous
May 2
Last Quarter
May 9
New
May 18
First Quarter
May 25
Full

Hourly Weather History & Observations

Time (EDT) Temp. Dew Point Humidity Pressure Visibility Wind Dir Wind Speed Gust Speed Precip Events Conditions
12:15 AM 55.4 °F 53.6 °F 94% 30.29 in 4.0 mi Calm Calm - N/A Rain Light Rain
12:35 AM 55.4 °F 53.6 °F 94% 30.30 in 5.0 mi Calm Calm - N/A   Light Drizzle
12:55 AM 55.4 °F 53.6 °F 94% 30.28 in 5.0 mi Calm Calm - N/A   Overcast
1:15 AM 55.4 °F 53.6 °F 94% 30.29 in 5.0 mi Calm Calm - N/A   Overcast
1:35 AM 55.4 °F 53.6 °F 94% 30.29 in 5.0 mi Calm Calm - N/A   Overcast
1:55 AM 55.4 °F 53.6 °F 94% 30.28 in 5.0 mi Calm Calm - N/A   Overcast
2:15 AM 55.4 °F 53.6 °F 94% 30.27 in 4.0 mi Calm Calm - N/A   Overcast
2:35 AM 55.4 °F 53.6 °F 94% 30.26 in 3.0 mi Calm Calm - N/A   Overcast
2:55 AM 55.4 °F 53.6 °F 94% 30.25 in 3.0 mi Calm Calm - N/A   Overcast
3:15 AM 55.4 °F 53.6 °F 94% 30.24 in 3.0 mi Calm Calm - N/A   Overcast
3:35 AM 55.4 °F 53.6 °F 94% 30.24 in 5.0 mi Calm Calm - N/A   Overcast
3:55 AM 55.4 °F 53.6 °F 94% 30.23 in 5.0 mi Calm Calm - N/A   Overcast
4:15 AM 55.4 °F 53.6 °F 94% 30.24 in 7.0 mi Calm Calm - N/A   Overcast
4:35 AM 55.4 °F 53.6 °F 94% 30.25 in 5.0 mi Calm Calm - N/A   Overcast
4:55 AM 53.6 °F 53.6 °F 100% 30.25 in 5.0 mi Calm Calm - N/A   Overcast
5:15 AM 55.4 °F 53.6 °F 94% 30.23 in 5.0 mi Calm Calm - N/A   Overcast
5:35 AM 55.4 °F 53.6 °F 94% 30.24 in 7.0 mi Calm Calm - N/A   Overcast
5:55 AM 55.4 °F 51.8 °F 88% 30.25 in 5.0 mi Calm Calm - N/A   Overcast
6:15 AM 53.6 °F 51.8 °F 94% 30.26 in 4.0 mi Calm Calm - N/A   Overcast
6:35 AM 53.6 °F 51.8 °F 94% 30.26 in 5.0 mi Calm Calm - N/A   Overcast
6:55 AM 53.6 °F 51.8 °F 94% 30.25 in 4.0 mi Calm Calm - N/A   Overcast
7:15 AM 55.4 °F 51.8 °F 88% 30.24 in 7.0 mi Calm Calm - N/A Rain Rain
7:35 AM 55.4 °F 51.8 °F 88% 30.25 in 5.0 mi Calm Calm - N/A Rain Light Rain
7:55 AM 55.4 °F 53.6 °F 94% 30.25 in 4.0 mi Calm Calm - N/A   Overcast
9:55 AM 55.4 °F 53.6 °F 94% 30.24 in 3.0 mi Calm Calm - N/A   Overcast
10:55 AM 57.2 °F 53.6 °F 88% 30.24 in 3.0 mi Calm Calm - N/A Rain Light Rain
11:55 AM 57.2 °F 55.4 °F 94% 30.33 in 3.0 mi ESE 4.6 mph - N/A Rain Light Rain
12:55 PM 57.2 °F 55.4 °F 94% 30.20 in 1.0 mi Calm Calm - N/A Rain Light Rain
1:55 PM 57.2 °F 55.4 °F 94% 30.19 in 1.0 mi NNW 6.9 mph - N/A Rain Heavy Rain
2:55 PM 57.2 °F 55.4 °F 94% 30.18 in 2.0 mi North 11.5 mph - N/A Rain Heavy Rain
3:55 PM 55.4 °F 55.4 °F 100% 30.16 in 2.0 mi NNE 6.9 mph - N/A Rain Rain
4:55 PM 57.2 °F 55.4 °F 94% 30.14 in 3.0 mi NNE 6.9 mph - N/A Rain Light Rain
5:55 PM 57.2 °F 55.4 °F 94% 30.14 in 3.0 mi NNE 3.5 mph - N/A Rain Rain
6:55 PM 57.2 °F 55.4 °F 94% 30.13 in 2.0 mi WNW 3.5 mph - N/A Rain Rain
7:55 PM 57.2 °F 55.4 °F 94% 30.12 in 3.0 mi NE 4.6 mph - N/A Rain Rain
8:55 PM 55.4 °F 53.6 °F 94% 30.12 in 3.0 mi Calm Calm - N/A Rain Rain
9:15 PM 55.4 °F 53.6 °F 94% 30.12 in 5.0 mi Calm Calm - 0.03 in Rain Rain
9:35 PM 55.4 °F 53.6 °F 94% 30.12 in 5.0 mi East 3.5 mph - 0.08 in Rain Rain
9:55 PM 55.4 °F 53.6 °F 94% 30.12 in 4.0 mi Calm Calm - 0.12 in Rain Rain
10:15 PM 55.4 °F 53.6 °F 94% 30.11 in 7.0 mi Calm Calm - 0.02 in Rain Rain
10:35 PM 55.4 °F 53.6 °F 94% 30.11 in 5.0 mi Calm Calm - 0.05 in Rain Rain
10:55 PM 55.4 °F 53.6 °F 94% 30.10 in 5.0 mi Calm Calm - 0.07 in Rain Rain
11:15 PM 55.4 °F 53.6 °F 94% 30.10 in 7.0 mi ESE 3.5 mph - N/A Rain Light Rain
11:35 PM 55.4 °F 53.6 °F 94% 30.09 in 7.0 mi Calm Calm - 0.01 in Rain Light Rain
11:55 PM 55.4 °F 53.6 °F 94% 30.10 in 5.0 mi SSE 4.6 mph - 0.01 in Rain Light Rain